Location: Rio Tanui
(39.9167°N, 8.5167°E)
Time: 08:17:43
(UTC+00:00)

COSMOS 2428 - Visible Passes

Search period start: 24 September 2023 00:00
Search period end: 04 October 2023 00:00
Orbit: 846 x 855 km, 70.9° (Epoch: 24 September)

Date Brightness Start Highest point End Pass type
(mag) Time Alt. Az. Time Alt. Az. Time Alt. Az.
24 Sep 5.9 03:08:43 10° NE 03:09:32 10° NE 03:10:21 10° NE visible
24 Sep 3.9 17:59:23 10° SE 18:03:15 19° E 18:07:07 10° ENE visible
24 Sep 3.2 19:41:24 10° SW 19:46:58 57° WNW 19:52:34 10° NNE visible
25 Sep 5.9 02:56:22 10° NE 02:57:09 10° NE 02:57:55 10° NE visible
25 Sep 3.4 04:36:56 10° NNW 04:42:36 62° ENE 04:48:13 10° SE visible
25 Sep 3.9 17:47:01 10° SE 17:50:52 19° E 17:54:44 10° ENE visible
25 Sep 3.3 19:29:01 10° SW 19:34:35 57° WNW 19:40:11 10° NNE visible
26 Sep 5.9 02:44:02 10° NE 02:44:45 10° NE 02:45:29 10° NE visible
26 Sep 3.3 04:24:33 10° NNW 04:30:12 62° ENE 04:35:50 10° SE visible
26 Sep 4.0 17:34:38 10° SE 17:38:29 19° E 17:42:20 10° ENE visible
26 Sep 3.3 19:16:37 10° SW 19:22:11 57° WNW 19:27:48 10° NNE visible
27 Sep 5.9 02:31:41 10° NE 02:32:22 10° NE 02:33:01 10° NE visible
27 Sep 3.3 04:12:10 10° NNW 04:17:49 61° ENE 04:23:26 10° SE visible
27 Sep 3.3 19:04:14 10° SW 19:09:48 57° WNW 19:15:24 10° NNE visible
28 Sep 5.8 02:19:20 10° NE 02:19:58 10° NE 02:20:35 10° NE visible
28 Sep 3.3 03:59:47 10° NNW 04:05:26 61° ENE 04:11:03 10° SE visible
28 Sep 3.3 18:51:50 10° SW 18:57:24 58° WNW 19:03:01 10° NNE visible
29 Sep 5.8 02:07:00 10° NE 02:07:34 10° NE 02:08:08 10° NE visible
29 Sep 3.3 03:47:23 10° NNW 03:53:02 61° ENE 03:58:40 10° SE visible
29 Sep 3.3 18:39:26 10° SW 18:45:01 58° WNW 18:50:37 10° NNE visible
30 Sep 5.8 01:54:41 10° NE 01:55:10 10° NE 01:55:40 10° NE visible
30 Sep 3.2 03:35:00 10° NNW 03:40:38 61° ENE 03:46:16 10° SE visible
30 Sep 3.3 18:27:02 10° SW 18:32:37 58° WNW 18:38:14 10° NNE visible
01 Oct 5.8 01:42:21 10° NE 01:42:46 10° NE 01:43:12 10° NE visible
01 Oct 3.2 03:22:36 10° NNW 03:28:14 61° ENE 03:33:52 10° SE visible
01 Oct 3.4 18:14:39 10° SW 18:20:13 58° WNW 18:25:50 10° NNE visible
02 Oct 5.7 01:30:03 10° NE 01:30:22 10° NE 01:30:42 10° NE visible
02 Oct 3.2 03:10:12 10° NNW 03:15:51 60° ENE 03:21:28 10° SE visible
02 Oct 4.0 04:55:49 10° WNW 04:59:31 18° W 05:03:14 10° SW visible
02 Oct 3.4 18:02:16 10° SW 18:07:49 58° WNW 18:13:26 10° NNE visible
03 Oct 5.7 01:17:47 10° NE 01:17:58 10° NE 01:18:09 10° NE visible
03 Oct 3.2 02:57:48 10° NNW 03:03:28 60° ENE 03:09:05 10° SE visible
03 Oct 4.0 04:43:24 10° WNW 04:47:08 18° W 04:50:51 10° SW visible
03 Oct 3.4 17:49:51 10° SW 17:55:26 59° WNW 18:01:03 10° NNE visible
